Home   Weather   Chesapeake   Past weeks

Flag for USA Past Weather in Chesapeake, Virginia, USA — Yesterday and Last 2 Weeks

Now
89 °F

Sunny.


Feels Like: 99 °F
Forecast: 73 / 97 °F
Wind: No wind

Location: Chesapeake Municipal Airport

Current Time: Jul 21, 2017 at 1:03:20 pm

Latest Report: Jul 21, 2017 at 12:35 pm


Visibility: 7 mi

Pressure: 29.97 "Hg

Humidity: 65%

Dew Point: 75 °F

Location of ChesapeakeLocation

Past Weather in Chesapeake — Graph

°F

Chesapeake Temperature Yesterday

Maximum temperature yesterday: 91 °F (at 2:55 pm)
Minimum temperature yesterday: 70 °F (at 5:55 am)
Average temperature yesterday: 80 °F

High & Low Weather Summary for the Past Weeks

 TemperatureHumidityPressure
High94 °F (Jul 14, 3:35 pm)99% (Jul 9, 5:35 am)30.13 "Hg (Jul 9, 5:35 am)
Low69 °F (Jul 9, 6:15 am)43% (Jul 8, 4:35 pm)29.83 "Hg (Jul 7, 5:55 pm)
Average80 °F79%30.01 "Hg
* Reported Jul 6 11:15 am — Jul 21 11:55 am, Chesapeake. Weather by CustomWeather, © 2017

Note: Actual official high and low records may vary slightly from our data, if they occured in-between our weather recording intervals... More about our weather records

Advertising

Chesapeake Weather History for the Previous 24 Hours

Scroll right to see more
 ConditionsComfort  
Time TempWeatherWind HumidityBarometerVisibility
11:55 am
Fri, Jul 21
87 °FSunny.5 mph72%29.98 "Hg7 mi
11:35 am87 °FSunny.5 mph70%29.98 "Hg7 mi
11:15 am86 °FSunny.5 mph71%29.98 "Hg7 mi
10:55 am86 °FSunny.5 mph74%29.99 "Hg7 mi
10:15 am85 °FSunny.No wind74%29.98 "Hg7 mi
9:55 am83 °FSunny.No wind76%29.98 "Hg10 mi
9:35 am82 °FSunny.3 mph78%29.98 "Hg10 mi
8:55 am81 °FSunny.3 mph82%29.98 "Hg10 mi
8:35 am79 °FSunny.5 mph87%29.98 "Hg10 mi
7:55 am77 °FSunny.3 mph90%29.97 "Hg10 mi
7:35 am76 °FSunny.No wind93%29.96 "Hg10 mi
6:55 am74 °FSunny.No wind95%29.95 "Hg7 mi
6:35 am73 °FSunny.No wind96%29.96 "Hg7 mi
6:15 am73 °FSunny.No wind96%29.95 "Hg7 mi
5:55 am73 °FClear.3 mph96%29.95 "Hg10 mi
5:35 am73 °FClear.5 mph96%29.95 "Hg10 mi
5:15 am73 °FClear.5 mph96%29.95 "Hg10 mi
4:55 am74 °FClear.5 mph95%29.95 "Hg10 mi
4:35 am74 °FClear.3 mph96%29.95 "Hg10 mi
4:15 am74 °FClear.3 mph95%29.95 "Hg10 mi
3:55 am74 °FClear.3 mph95%29.95 "Hg10 mi
3:35 am74 °FClear.3 mph95%29.95 "Hg10 mi
2:55 am75 °FClear.3 mph94%29.97 "Hg10 mi
2:35 am75 °FClear.5 mph94%29.97 "Hg10 mi
1:55 am76 °FClear.6 mph92%29.98 "Hg10 mi
1:35 am76 °FPassing clouds.5 mph93%29.99 "Hg10 mi
1:15 am76 °FPassing clouds.6 mph92%29.99 "Hg10 mi
12:55 am76 °FClear.6 mph91%29.99 "Hg10 mi
12:35 am76 °FClear.6 mph92%29.99 "Hg10 mi
12:15 am76 °FClear.No wind91%29.99 "Hg10 mi
11:55 pm
Thu, Jul 20
76 °FClear.3 mph90%29.99 "Hg7 mi
11:35 pm76 °FClear.No wind90%29.99 "Hg10 mi
11:15 pm77 °FClear.No wind88%29.98 "Hg10 mi
10:55 pm77 °FClear.No wind87%29.99 "Hg10 mi
10:35 pm77 °FClear.No wind88%29.98 "Hg10 mi
10:15 pm78 °FClear.No wind85%29.98 "Hg7 mi
9:55 pm78 °FClear.No wind84%29.97 "Hg10 mi
9:35 pm78 °FClear.3 mph84%29.97 "Hg7 mi
8:55 pm80 °FClear.3 mph80%29.96 "Hg10 mi
8:15 pm81 °FSunny.No wind76%29.96 "Hg10 mi
7:55 pm82 °FSunny.5 mph74%29.95 "Hg7 mi
7:35 pm83 °FSunny.3 mph72%29.95 "Hg10 mi
7:15 pm85 °FSunny.5 mph68%29.95 "Hg10 mi
6:55 pm85 °FSunny.7 mph68%29.94 "Hg10 mi
6:35 pm86 °FSunny.5 mph70%29.95 "Hg10 mi
6:15 pm88 °FSunny.9 mph65%29.95 "Hg10 mi
5:55 pm89 °FSunny.5 mph61%29.96 "Hg10 mi
5:35 pm90 °FSunny.3 mph60%29.96 "Hg10 mi
5:15 pm90 °FSunny.3 mph57%29.97 "Hg10 mi
4:55 pm89 °FSunny.6 mph63%29.97 "Hg10 mi
4:35 pm90 °FScattered clouds.7 mph60%29.98 "Hg10 mi
4:15 pm89 °FScattered clouds.5 mph61%29.98 "Hg10 mi
3:35 pm90 °FSunny.8 mph56%29.99 "Hg10 mi
2:55 pm91 °FScattered clouds.7 mph57%30.00 "Hg10 mi
2:35 pm91 °FSunny.5 mph53%30.01 "Hg10 mi
1:55 pm90 °FSunny.3 mph49%30.02 "Hg10 mi
1:35 pm90 °FSunny.6 mph54%30.02 "Hg10 mi
1:15 pm90 °FSunny.5 mph53%30.03 "Hg10 mi
Weather by CustomWeather, © 2017

See weather overviewHow to use our weather pages